When you browse on this site, cookies collect data to enhance your experience and personalize the content and advertising you see.
Visit our Privacy Policy to learn more. By continuing to use the site, you agree to this use of cookies and data.
  • în România
  • Lista ţărilor
  • Pe 7 zile
  • Temperatura apei
  • Hartă satelitară
  • Meteo pe hartă
  • Widget-uri
  • user-avatar
    Intrare

    Meteo pe oră la Rino

    Astăzi, 20 Mai, Luni

    Timp Temperatura Precipitaţii Vânt Presiune Umiditate
    00:00 +3°C° 0 mm 2 m/s 637 mmHg 73%
    01:00 +1°C° 0 mm 3 m/s 638 mmHg 76%
    02:00 +2°C° 0 mm 2 m/s 638 mmHg 75%
    03:00 +2°C° 0 mm 2 m/s 638 mmHg 75%
    04:00 +2°C° 0 mm 2 m/s 638 mmHg 74%
    05:00 +3°C° 0 mm 2 m/s 639 mmHg 68%
    06:00 +5°C° 0 mm 2 m/s 639 mmHg 63%
    07:00 +6°C° 0 mm 2 m/s 639 mmHg 57%
    08:00 +8°C° 0 mm 2 m/s 640 mmHg 52%
    09:00 +9°C° 0 mm 3 m/s 640 mmHg 47%
    10:00 +11°C° 0 mm 4 m/s 640 mmHg 41%
    11:00 +12°C° 0 mm 5 m/s 640 mmHg 41%
    12:00 +13°C° 0 mm 6 m/s 640 mmHg 40%
    13:00 +14°C° 0 mm 7 m/s 640 mmHg 39%
    14:00 +12°C° 0 mm 8 m/s 640 mmHg 42%
    15:00 +11°C° 0 mm 8 m/s 639 mmHg 44%
    16:00 +11°C° 0 mm 9 m/s 639 mmHg 47%
    17:00 +9°C° 0 mm 8 m/s 639 mmHg 52%
    18:00 +8°C° 0 mm 7 m/s 639 mmHg 58%
    19:00 +5°C° 0 mm 7 m/s 638 mmHg 63%
    20:00 +5°C° 0 mm 7 m/s 638 mmHg 63%
    21:00 +4°C° 0 mm 8 m/s 639 mmHg 63%
    22:00 +3°C° 0 mm 9 m/s 639 mmHg 64%
    23:00 +3°C° 0 mm 7 m/s 639 mmHg 64%

    Mâine, 21 Mai, Marţi

    Timp Temperatura Precipitaţii Vânt Presiune Umiditate
    00:00 +3°C° 0 mm 6 m/s 638 mmHg 65%
    01:00 +2°C° 0 mm 5 m/s 638 mmHg 66%
    02:00 +2°C° 0 mm 5 m/s 638 mmHg 67%
    03:00 +3°C° 0 mm 4 m/s 638 mmHg 68%
    04:00 +4°C° 0 mm 4 m/s 638 mmHg 69%
    05:00 +3°C° 0.2 mm 5 m/s 638 mmHg 67%
    06:00 +3°C° 0.2 mm 6 m/s 638 mmHg 65%
    07:00 +4°C° 0.2 mm 7 m/s 638 mmHg 62%
    08:00 +5°C° 0.1 mm 7 m/s 638 mmHg 57%
    09:00 +6°C° 0.1 mm 8 m/s 638 mmHg 52%
    10:00 +7°C° 0.1 mm 8 m/s 638 mmHg 47%
    11:00 +7°C° 0.1 mm 8 m/s 638 mmHg 46%
    12:00 +9°C° 0.1 mm 8 m/s 638 mmHg 46%
    13:00 +8°C° 0.1 mm 9 m/s 638 mmHg 45%
    14:00 +9°C° 0.1 mm 8 m/s 637 mmHg 46%
    15:00 +9°C° 0.1 mm 8 m/s 637 mmHg 47%
    16:00 +9°C° 0.1 mm 7 m/s 637 mmHg 48%
    17:00 +8°C° 0 mm 6 m/s 636 mmHg 53%
    18:00 +7°C° 0 mm 5 m/s 636 mmHg 58%
    19:00 +7°C° 0 mm 3 m/s 636 mmHg 62%
    20:00 +5°C° 0 mm 3 m/s 636 mmHg 66%
    21:00 +5°C° 0 mm 3 m/s 636 mmHg 70%
    22:00 +5°C° 0 mm 2 m/s 636 mmHg 73%
    23:00 +5°C° 0.1 mm 2 m/s 636 mmHg 75%

    Poimâine, 22 Mai, Miercuri

    Timp Temperatura Precipitaţii Vânt Presiune Umiditate
    00:00 +5°C° 0.1 mm 2 m/s 636 mmHg 77%
    01:00 +4°C° 0.1 mm 3 m/s 636 mmHg 78%
    02:00 +4°C° 0.9 mm 3 m/s 636 mmHg 81%
    03:00 +4°C° 0.9 mm 3 m/s 636 mmHg 83%
    04:00 +4°C° 0.9 mm 3 m/s 636 mmHg 85%
    05:00 +4°C° 0.4 mm 3 m/s 636 mmHg 84%
    06:00 +5°C° 0.4 mm 4 m/s 636 mmHg 84%
    07:00 +6°C° 0.4 mm 4 m/s 636 mmHg 83%
    08:00 +6°C° 0.2 mm 4 m/s 637 mmHg 81%
    09:00 +7°C° 0.2 mm 4 m/s 637 mmHg 79%
    10:00 +8°C° 0.2 mm 4 m/s 637 mmHg 77%
    11:00 +10°C° 0.2 mm 4 m/s 637 mmHg 72%
    12:00 +10°C° 0.2 mm 5 m/s 637 mmHg 68%
    13:00 +12°C° 0.2 mm 5 m/s 638 mmHg 63%
    14:00 +12°C° 0.2 mm 5 m/s 638 mmHg 61%
    15:00 +13°C° 0.2 mm 5 m/s 637 mmHg 59%
    16:00 +13°C° 0.2 mm 6 m/s 637 mmHg 57%
    17:00 +12°C° 0.2 mm 5 m/s 637 mmHg 62%
    18:00 +12°C° 0.2 mm 4 m/s 637 mmHg 66%
    19:00 +11°C° 0.2 mm 3 m/s 637 mmHg 71%
    20:00 +10°C° 0.2 mm 3 m/s 637 mmHg 75%
    21:00 +9°C° 0.2 mm 3 m/s 637 mmHg 78%
    22:00 +9°C° 0.2 mm 2 m/s 637 mmHg 82%
    23:00 +8°C° 0.1 mm 2 m/s 637 mmHg 83%

    23 Mai, Joi

    Timp Temperatura Precipitaţii Vânt Presiune Umiditate
    00:00 +8°C° 0.1 mm 2 m/s 637 mmHg 84%
    01:00 +8°C° 0.1 mm 2 m/s 637 mmHg 86%
    02:00 +8°C° 0 mm 2 m/s 637 mmHg 87%
    03:00 +7°C° 0 mm 2 m/s 636 mmHg 89%
    04:00 +7°C° 0 mm 2 m/s 636 mmHg 91%
    05:00 +8°C° 0 mm 2 m/s 637 mmHg 87%
    06:00 +8°C° 0 mm 2 m/s 637 mmHg 83%
    07:00 +9°C° 0 mm 2 m/s 638 mmHg 79%
    08:00 +10°C° 0 mm 3 m/s 639 mmHg 71%
    09:00 +11°C° 0 mm 4 m/s 639 mmHg 63%
    10:00 +13°C° 0 mm 5 m/s 640 mmHg 55%
    11:00 +13°C° 0.1 mm 4 m/s 640 mmHg 51%
    12:00 +14°C° 0.1 mm 4 m/s 640 mmHg 47%
    13:00 +15°C° 0.1 mm 4 m/s 640 mmHg 43%
    14:00 +17°C° 0 mm 4 m/s 641 mmHg 40%
    15:00 +17°C° 0 mm 4 m/s 641 mmHg 37%
    16:00 +18°C° 0 mm 4 m/s 641 mmHg 35%
    17:00 +17°C° 0 mm 4 m/s 641 mmHg 39%
    18:00 +15°C° 0 mm 4 m/s 641 mmHg 44%
    19:00 +14°C° 0 mm 3 m/s 641 mmHg 49%
    20:00 +13°C° 0 mm 3 m/s 641 mmHg 52%
    21:00 +13°C° 0 mm 2 m/s 642 mmHg 56%
    22:00 +12°C° 0 mm 1 m/s 642 mmHg 59%
    23:00 +10°C° 0 mm 2 m/s 642 mmHg 61%

    24 Mai, Vineri

    Timp Temperatura Precipitaţii Vânt Presiune Umiditate
    00:00 +10°C° 0 mm 2 m/s 642 mmHg 64%
    01:00 +9°C° 0 mm 2 m/s 642 mmHg 66%
    02:00 +9°C° 0 mm 2 m/s 642 mmHg 68%
    03:00 +9°C° 0 mm 2 m/s 642 mmHg 71%
    04:00 +8°C° 0 mm 2 m/s 642 mmHg 73%
    05:00 +10°C° 0 mm 2 m/s 642 mmHg 67%
    06:00 +12°C° 0 mm 1 m/s 643 mmHg 61%
    07:00 +14°C° 0 mm 1 m/s 644 mmHg 55%
    08:00 +15°C° 0 mm 1 m/s 644 mmHg 49%
    09:00 +18°C° 0 mm 1 m/s 645 mmHg 42%
    10:00 +19°C° 0 mm 1 m/s 645 mmHg 36%
    11:00 +20°C° 0 mm 1 m/s 645 mmHg 33%
    12:00 +21°C° 0 mm 1 m/s 645 mmHg 31%
    13:00 +22°C° 0 mm 1 m/s 645 mmHg 28%
    14:00 +21°C° 0.1 mm 2 m/s 644 mmHg 31%
    15:00 +20°C° 0.1 mm 2 m/s 644 mmHg 35%
    16:00 +20°C° 0.1 mm 3 m/s 644 mmHg 38%
    17:00 +18°C° 0.6 mm 3 m/s 643 mmHg 49%
    18:00 +17°C° 0.6 mm 4 m/s 643 mmHg 59%
    19:00 +14°C° 0.6 mm 4 m/s 643 mmHg 70%
    20:00 +13°C° 1.4 mm 3 m/s 643 mmHg 74%
    21:00 +13°C° 1.4 mm 3 m/s 643 mmHg 78%
    22:00 +13°C° 1.4 mm 2 m/s 643 mmHg 82%
    23:00 +13°C° 1.5 mm 2 m/s 643 mmHg 82%

    25 Mai, Sâmbătă

    Timp Temperatura Precipitaţii Vânt Presiune Umiditate
    00:00 +12°C° 1.5 mm 2 m/s 643 mmHg 82%
    01:00 +12°C° 1.5 mm 2 m/s 643 mmHg 82%
    02:00 +12°C° 0 mm 2 m/s 642 mmHg 82%
    03:00 +10°C° 0 mm 2 m/s 642 mmHg 81%
    04:00 +10°C° 0 mm 2 m/s 642 mmHg 81%
    05:00 +12°C° 0 mm 2 m/s 642 mmHg 76%
    06:00 +13°C° 0 mm 2 m/s 642 mmHg 71%
    07:00 +14°C° 0 mm 2 m/s 643 mmHg 66%
    08:00 +16°C° 0 mm 2 m/s 643 mmHg 55%
    09:00 +17°C° 0 mm 2 m/s 643 mmHg 44%
    10:00 +19°C° 0 mm 3 m/s 643 mmHg 33%
    11:00 +20°C° 0 mm 5 m/s 643 mmHg 32%
    12:00 +20°C° 0 mm 6 m/s 642 mmHg 30%
    13:00 +21°C° 0 mm 8 m/s 642 mmHg 29%
    14:00 +20°C° 0 mm 8 m/s 641 mmHg 32%
    15:00 +18°C° 0 mm 9 m/s 640 mmHg 35%
    16:00 +17°C° 0 mm 9 m/s 640 mmHg 38%
    17:00 +16°C° 0.1 mm 8 m/s 639 mmHg 45%
    18:00 +13°C° 0.1 mm 8 m/s 639 mmHg 52%
    19:00 +11°C° 0.1 mm 7 m/s 638 mmHg 58%
    20:00 +11°C° 0.2 mm 7 m/s 638 mmHg 59%
    21:00 +10°C° 0.2 mm 6 m/s 637 mmHg 60%
    22:00 +9°C° 0.2 mm 6 m/s 637 mmHg 61%
    23:00 +9°C° 0.7 mm 5 m/s 637 mmHg 64%
    Arată mai mult